Date String (YYYY-MM-DD hh:mm:ss) UTC,Instrument flags,Ambient pressure (hPa),Sample flow (lpm),Bypass flow (lpm),Sample temperature (°C),Ambient temperature (°C),ASC tube jacket temperature (°C),LED temperature (°C),Box temperature (°C),Sample RH (%),Span deviation,Mass concentration (μg/m³),Mass concentration (μg/m³),Mass concentration (μg/m³)
DateTimeUTC,F1_M11,P_M11,Q1_M11,Q2_M11,T1_M11,T2_M11,T3_M11,T4_M11,T5_M11,U1_M11,ZSPAN_M11,X0_M11,X2_M11,X1_M11
2023-04-29 00:00:00,,0833.0,5.00,0.00,26.5,25.2,00.0,34.9,28.1,11.1,0000.0,0009.45,0003.64,0002.44
2023-04-29 00:01:00,,0833.0,5.02,0.00,26.5,25.2,00.0,34.9,28.1,11.1,0000.0,0009.27,0003.64,0002.44
2023-04-29 00:02:00,,0832.9,5.00,0.00,26.5,25.2,00.0,34.9,28.1,11.1,0000.0,0008.90,0003.63,0002.44
2023-04-29 00:03:00,,0833.1,5.00,0.00,26.5,25.2,00.0,34.9,28.1,11.0,0000.0,0008.72,0003.62,0002.45
2023-04-29 00:04:00,,0833.3,4.99,0.00,26.5,25.2,00.0,34.9,28.1,11.2,0000.0,0008.86,0003.65,0002.48
2023-04-29 00:05:00,,0833.1,5.00,0.00,26.5,25.2,00.0,34.9,28.1,11.6,0000.0,0009.10,0003.65,0002.49
2023-04-29 00:06:00,,0833.1,5.00,0.00,26.5,25.3,00.0,34.9,28.1,11.3,0000.0,0009.31,0003.67,0002.48
2023-04-29 00:07:00,,0833.4,4.99,0.00,26.5,25.2,00.0,34.9,28.2,11.3,0000.0,0009.68,0003.65,0002.49
2023-04-29 00:08:00,,0833.4,5.00,0.00,26.5,25.2,00.0,34.9,28.2,11.2,0000.0,0009.69,0003.64,0002.47
2023-04-29 00:09:00,,0833.4,5.02,0.00,26.5,25.2,00.0,34.9,28.1,10.9,0000.0,0009.80,0003.64,0002.45
2023-04-29 00:10:00,,0833.1,5.00,0.00,26.5,25.2,00.0,34.9,28.1,10.9,0000.0,0009.59,0003.61,0002.43
2023-04-29 00:11:00,,0833.3,4.99,0.00,26.6,25.2,00.0,34.9,28.1,11.2,0000.0,0009.44,0003.61,0002.44
2023-04-29 00:12:00,,0833.2,4.99,0.00,26.6,25.2,00.0,34.9,28.2,11.2,0000.0,0009.52,0003.66,0002.45
2023-04-29 00:13:00,,0833.2,5.00,0.00,26.6,25.3,00.0,34.9,28.2,11.1,0000.0,0009.78,0003.70,0002.48
2023-04-29 00:14:00,,0833.1,5.02,0.00,26.6,25.2,00.0,35.0,28.1,11.1,0000.0,0009.97,0003.67,0002.47
2023-04-29 00:15:00,,0833.2,5.00,0.00,26.6,25.2,00.0,35.0,28.1,10.9,0000.0,0010.23,0003.63,0002.48
2023-04-29 00:16:00,,0833.1,5.00,0.00,26.6,25.2,00.0,35.0,28.1,10.9,0000.0,0010.17,0003.59,0002.48
2023-04-29 00:17:00,,0833.0,5.00,0.00,26.5,25.1,00.0,35.0,28.1,10.9,0000.0,0009.98,0003.58,0002.49
2023-04-29 00:18:00,,0833.0,4.99,0.00,26.5,25.1,00.0,35.0,28.1,11.0,0000.0,0009.82,0003.60,0002.49
2023-04-29 00:19:00,,0833.0,5.00,0.00,26.5,25.1,00.0,35.0,28.1,10.9,0000.0,0009.57,0003.58,0002.47
2023-04-29 00:20:00,,0833.4,4.99,0.00,26.5,25.1,00.0,35.0,28.1,10.8,0000.0,0009.48,0003.55,0002.48
2023-04-29 00:21:00,,0833.3,5.01,0.00,26.5,25.1,00.0,35.0,28.1,10.7,0000.0,0009.27,0003.58,0002.50
2023-04-29 00:22:00,,0833.2,5.00,0.00,26.5,25.1,00.0,35.0,28.1,10.6,0000.0,0009.20,0003.65,0002.50
2023-04-29 00:23:00,,0833.4,5.00,0.00,26.5,25.1,00.0,35.0,28.1,10.6,0000.0,0009.34,0003.67,0002.51
2023-04-29 00:24:00,,0833.0,5.01,0.00,26.5,25.2,00.0,35.0,28.1,10.7,0000.0,0009.41,0003.66,0002.51
2023-04-29 00:25:00,,0833.2,5.00,0.00,26.5,25.2,00.0,35.0,28.1,10.7,0000.0,0009.22,0003.67,0002.48
2023-04-29 00:26:00,,0833.3,5.00,0.00,26.5,25.2,00.0,35.0,28.2,11.0,0000.0,0009.07,0003.74,0002.46
2023-04-29 00:27:00,,0833.4,5.00,0.00,26.6,25.3,00.0,35.0,28.2,10.9,0000.0,0008.53,0003.79,0002.46
2023-04-29 00:28:00,,0833.5,5.00,0.00,26.6,25.3,00.0,35.0,28.2,10.6,0000.0,0008.64,0003.82,0002.46
2023-04-29 00:29:00,,0833.3,5.00,0.00,26.6,25.3,00.0,35.0,28.2,10.6,0000.0,0009.17,0003.86,0002.45
2023-04-29 00:30:00,,0833.2,5.00,0.00,26.6,25.4,00.0,35.0,28.2,10.5,0000.0,0009.20,0003.86,0002.45
2023-04-29 00:31:00,,0833.2,5.01,0.00,26.6,25.4,00.0,35.0,28.2,10.7,0000.0,0009.42,0003.91,0002.45
2023-04-29 00:32:00,,0833.3,5.00,0.00,26.6,25.4,00.0,35.0,28.2,10.9,0000.0,0009.45,0003.93,0002.43
2023-04-29 00:33:00,,0833.1,5.00,0.00,26.7,25.4,00.0,35.0,28.3,11.0,0000.0,0009.56,0003.92,0002.41
2023-04-29 00:34:00,,0833.1,5.00,0.00,26.7,25.4,00.0,35.0,28.3,11.1,0000.0,0009.71,0003.84,0002.38
2023-04-29 00:35:00,,0833.2,5.00,0.00,26.7,25.5,00.0,35.0,28.3,11.2,0000.0,0009.75,0003.80,0002.35
2023-04-29 00:36:00,,0833.2,4.99,0.00,26.7,25.5,00.0,35.1,28.3,11.3,0000.0,0009.77,0003.80,0002.34
2023-04-29 00:37:00,,0833.2,5.00,0.00,26.7,25.5,00.0,35.1,28.3,11.3,0000.0,0010.11,0003.79,0002.33
2023-04-29 00:38:00,,0833.2,5.00,0.00,26.7,25.5,00.0,35.1,28.3,11.5,0000.0,0010.90,0003.79,0002.32
2023-04-29 00:39:00,,0833.2,5.00,0.00,26.7,25.4,00.0,35.1,28.3,11.4,0000.0,0010.83,0003.76,0002.29
2023-04-29 00:40:00,,0833.2,4.99,0.00,26.7,25.4,00.0,35.1,28.3,11.3,0000.0,0010.31,0003.72,0002.28
2023-04-29 00:41:00,,0833.2,4.99,0.00,26.7,25.4,00.0,35.1,28.3,11.5,0000.0,0010.14,0003.70,0002.27
2023-04-29 00:42:00,,0833.2,5.00,0.00,26.7,25.4,00.0,35.1,28.2,11.5,0000.0,0009.81,0003.67,0002.25
2023-04-29 00:43:00,,0833.2,5.02,0.00,26.7,25.3,00.0,35.1,28.2,11.5,0000.0,0009.71,0003.66,0002.22
2023-04-29 00:44:00,,0833.2,5.00,0.00,26.7,25.3,00.0,35.1,28.2,11.5,0000.0,0009.79,0003.63,0002.21
2023-04-29 00:45:00,,0833.1,5.00,0.00,26.7,25.3,00.0,35.1,28.2,11.6,0000.0,0009.44,0003.60,0002.19
2023-04-29 00:46:00,,0833.1,4.99,0.00,26.7,25.3,00.0,35.1,28.2,11.6,0000.0,0009.24,0003.55,0002.18
2023-04-29 00:47:00,,0833.1,5.00,0.00,26.7,25.3,00.0,35.1,28.2,11.7,0000.0,0009.45,0003.51,0002.17
2023-04-29 00:48:00,,0833.1,5.02,0.00,26.7,25.3,00.0,35.1,28.3,12.2,0000.0,0009.15,0003.50,0002.17
2023-04-29 00:49:00,,0833.2,5.01,0.00,26.7,25.3,00.0,35.1,28.3,11.6,0000.0,0007.98,0003.42,0002.15
2023-04-29 00:50:00,,0833.2,5.00,0.00,26.7,25.3,00.0,35.1,28.3,12.0,0000.0,0007.91,0003.42,0002.16
2023-04-29 00:51:00,,0833.1,5.00,0.00,26.7,25.3,00.0,35.1,28.3,12.0,0000.0,0008.27,0003.41,0002.15
2023-04-29 00:52:00,,0833.5,5.00,0.00,26.7,25.4,00.0,35.1,28.3,11.7,0000.0,0008.96,0003.38,0002.14
2023-04-29 00:53:00,,0833.2,4.99,0.00,26.7,25.4,00.0,35.1,28.3,11.5,0000.0,0009.12,0003.41,0002.16
2023-04-29 00:54:00,,0833.3,5.00,0.00,26.7,25.4,00.0,35.1,28.3,11.5,0000.0,0009.10,0003.39,0002.18
2023-04-29 00:55:00,,0833.5,5.00,0.00,26.7,25.4,00.0,35.1,28.3,11.5,0000.0,0008.79,0003.37,0002.18
2023-04-29 00:56:00,,0833.4,5.02,0.00,26.7,25.4,00.0,35.1,28.3,11.9,0000.0,0008.87,0003.42,0002.20
2023-04-29 00:57:00,,0833.3,5.00,0.00,26.7,25.4,00.0,35.1,28.3,12.2,0000.0,0008.79,0003.45,0002.20
2023-04-29 00:58:00,,0833.2,5.00,0.00,26.7,25.4,00.0,35.1,28.2,11.8,0000.0,0008.45,0003.46,0002.19
2023-04-29 00:59:00,,0833.1,4.99,0.00,26.7,25.3,00.0,35.1,28.2,11.8,0000.0,0008.33,0003.44,0002.17
